This demonstration page uses our WeatherBlox Daily Observations layout. Learn more.

Left ArrowRight Arrow

38.89511, -77.03637

Hourly Observations for May 30, 2017

Temp ( °F °C ) Dew Point ( °F °C ) Humidity (%) Winds ( mph kmh ) Pressure ( in mb ) Visibility ( mi km ) Precip ( " mm )
12:52 am 00:52 Cloudy 69 20.6 65 18.3 87 87 ESE 9 15 30.04 1017 10 16 0.00 0.00
1:52 am 01:52 Cloudy 68 20 64 17.8 87 87 ESE 9 15 30.05 1018 10 16 0.00 0.00
2:52 am 02:52 Cloudy 67 19.4 64 17.8 91 91 ESE 9 15 30.05 1018 10 16 0.00 0.00
3:52 am 03:52 Cloudy 66 18.9 63 17.2 90 90 ESE 7 11 30.05 1018 10 16 0.00 0.00
4:27 am 04:27 Cloudy 65 18.3 63 17.2 93 93 ESE 8 13 30.03 1017 10 16 0.00 0.00
4:52 am 04:52 Cloudy 65 18.3 63 17.2 93 93 ESE 5 7 30.05 1018 10 16 0.00 0.00
5:37 am 05:37 Cloudy 63 17.2 62 16.7 97 97 E 9 15 30.06 1018 9 14 0.00 0.00
5:52 am 05:52 Cloudy with Mist and Fog 63 17.2 62 16.7 97 97 E 13 20 30.05 1018 5 8 0.00 0.00
6:52 am 06:52 Cloudy with Drizzle 63 17.2 61 16.1 93 93 E 8 13 30.08 1019 4 6 0.00 0.03
7:52 am 07:52 Cloudy with Mist and Fog 63 17.2 61 16.1 93 93 E 10 17 30.08 1019 6 10 0.00 0.03
8:52 am 08:52 Cloudy 63 17.2 61 16.1 93 93 E 8 13 30.10 1019 7 11 0.00 0.00
9:41 am 09:41 Cloudy 63 17.2 61 16.1 93 93 E 8 13 30.09 1019 7 11 0.00 0.00
9:52 am 09:52 Cloudy 64 17.8 62 16.7 93 93 E 6 9 30.10 1019 7 11 0.00 0.00
10:52 am 10:52 Cloudy 64 17.8 62 16.7 93 93 ESE 9 15 30.09 1019 10 16 0.00 0.03
11:38 am 11:38 Cloudy 65 18.3 63 17.2 93 93 E 6 9 30.09 1019 10 16 0.00 0.00
11:52 am 11:52 Cloudy 64 17.8 62 16.7 93 93 E 6 9 30.09 1019 8 13 0.00 0.00
12:18 pm 12:18 Cloudy 65 18.3 63 17.2 93 93 E 5 7 30.09 1019 10 16 0.00 0.00
12:52 pm 12:52 Cloudy 66 18.9 63 17.2 90 90 E 9 15 30.09 1019 8 13 0.00 0.00
1:52 pm 13:52 Cloudy 67 19.4 64 17.8 91 91 SE 7 11 30.06 1018 8 13 0.00 0.00
2:19 pm 14:19 Cloudy 68 20 65 18.3 90 90 SE 10 17 30.06 1018 10 16 0.00 0.00
2:52 pm 14:52 Cloudy 68 20 65 18.3 90 90 SE 7 11 30.04 1017 10 16 0.00 0.00
3:52 pm 15:52 Cloudy 69 20.6 65 18.3 87 87 SE 7 11 30.03 1017 10 16 0.00 0.00
4:34 pm 16:34 Cloudy 70 21.1 66 18.9 87 87 S 5 7 30.03 1017 10 16 0.00 0.00
4:36 pm 16:36 Cloudy 70 21.1 66 18.9 87 87 S 5 7 30.03 1017 10 16 0.00 0.00
4:52 pm 16:52 Cloudy 70 21.1 66 18.9 87 87 SE 6 9 30.02 1017 10 16 0.00 0.00
5:40 pm 17:40 Mostly Cloudy 71 21.7 65 18.3 81 81 ESE 9 15 30.00 1016 10 16 0.00 0.00
5:45 pm 17:45 Mostly Cloudy 71 21.7 65 18.3 81 81 E 8 13 30.00 1016 10 16 0.00 0.00
5:52 pm 17:52 Mostly Cloudy 70 21.1 66 18.9 87 87 E 7 11 30.01 1016 10 16 0.00 0.00
6:06 pm 18:06 Partly Cloudy 70 21.1 65 18.3 84 84 ESE 9 15 30.00 1016 10 16 0.00 0.00
6:52 pm 18:52 Mostly Cloudy 69 20.6 65 18.3 87 87 E 12 19 30.01 1016 10 16 0.00 0.00
7:52 pm 19:52 Mostly Cloudy 69 20.6 65 18.3 87 87 E 12 19 30.02 1017 10 16 0.00 0.00
8:07 pm 20:07 Mostly Cloudy with Nearby Thunderstorms 69 20.6 65 18.3 87 87 ENE 8 13 30.06 1018 10 16 0.00 0.00
8:09 pm 20:09 Mostly Cloudy with Nearby Thunderstorms 69 20.6 65 18.3 87 87 N 8 13 30.06 1018 10 16 0.00 0.00
8:12 pm 20:12 Mostly Cloudy with Nearby Thunderstorms 69 20.6 65 18.3 87 87 NNW 13 20 30.06 1018 10 16 0.00 0.00
8:18 pm 20:18 Mostly Cloudy with Nearby Thunderstorms 69 20.6 65 18.3 87 87 VRB 7 11 30.03 1017 10 16 0.00 0.00
8:20 pm 20:20 Mostly Cloudy with Nearby Thunderstorms 69 20.6 65 18.3 87 87 E 12 19 30.03 1017 10 16 0.00 0.00
8:23 pm 20:23 Cloudy with Thunderstorms 69 20.6 65 18.3 87 87 E 10 17 30.03 1017 10 16 0.00 0.03
8:46 pm 20:46 Mostly Cloudy with Thunderstorms 68 20 64 18 88 88 ESE 10 17 30.03 1017 10 16 0.00 0.03
8:52 pm 20:52 Mostly Cloudy with Thunderstorms 68 20 65 18.3 90 90 E 7 11 30.03 1017 10 16 0.00 0.03
9:13 pm 21:13 Mostly Cloudy with Thunderstorms 68 20 65 18.3 90 90 SW 7 11 30.06 1018 8 13 0.00 0.03
9:17 pm 21:17 Mostly Cloudy with Thunderstorms 68 20 66 18.9 93 93 SSE 7 11 30.06 1018 6 10 0.01 0.25
9:23 pm 21:23 Cloudy with Thunderstorms 68 20 66 18.9 93 93 SE 8 13 30.03 1017 5 8 0.04 1.02
9:25 pm 21:25 Cloudy with Thunderstorms 67 19.4 66 18.9 97 97 ESE 12 19 30.03 1017 5 8 0.05 1.27
9:52 pm 21:52 Cloudy with Thunderstorms 68 20 66 18.9 93 93 NW 15 24 30.07 1018 10 16 0.07 1.78
9:56 pm 21:56 Cloudy with Light Rain 68 20 66 18.9 93 93 WNW 10 17 30.09 1019 9 14 0.00 0.03
10:01 pm 22:01 Cloudy with Thunderstorms 68 20 66 18.9 93 93 NW 7 11 30.09 1019 6 10 0.01 0.25
10:04 pm 22:04 Cloudy with Thunderstorms 68 20 66 18.9 93 93 WNW 5 7 30.09 1019 6 10 0.02 0.51
10:14 pm 22:14 Cloudy with Thunderstorms 67 19.4 66 18.9 97 97 N 10 17 30.06 1018 5 8 0.05 1.27
10:17 pm 22:17 Cloudy with Thunderstorms 67 19.4 66 18.9 97 97 N 10 17 30.06 1018 6 10 0.05 1.27
10:26 pm 22:26 Cloudy with Light Rain 67 19.4 66 18.9 97 97 NE 13 20 30.03 1017 10 16 0.05 1.27
10:43 pm 22:43 Cloudy with Light Rain 67 19.4 66 18.9 97 97 ENE 8 13 30.06 1018 10 16 0.05 1.27
10:52 pm 22:52 Cloudy with Light Rain 67 19.4 66 18.9 97 97 NE 5 7 30.06 1018 10 16 0.05 1.27
11:05 pm 23:05 Cloudy with Thunderstorms 67 19.4 66 18.9 97 97 N 5 7 30.06 1018 10 16 0.02 0.51
11:38 pm 23:38 Cloudy with Thunderstorms 67 19.4 66 18.9 97 97 SE 9 15 30.06 1018 8 13 0.03 0.76
11:46 pm 23:46 Cloudy with Thunderstorms 66 19 66 19 100 100 SE 7 11 30.06 1018 8 13 0.03 0.76
11:52 pm 23:52 Cloudy with Thunderstorms 67 19.4 66 18.9 97 97 SE 8 13 30.04 1017 9 14 0.04 1.02

Powered by AerisWeather